Precipitable_Water
0.68 0.54 0.40 0.32 0.26 0.23 0.24 0.25 0.28 0.39 0.44 0.46 0.47 0.46 0.42 0.39 0.38 0.34 0.34 0.37 0.28 0.25 0.28 0.28 0.26 0.19 0.17 0.16 0.14 0.15 0.15 0.17 0.15 0.14 0.13 0.14 0.14 0.15 0.17 0.21 0.23 0.24 0.23 0.27 0.35 0.32 0.29 0.56 0.56 0.38 0.39 0.47 0.46 0.44
0.63 0.48 0.35 0.30 0.25 0.25 0.26 0.27 0.34 0.43 0.46 0.46 0.44 0.42 0.40 0.39 0.37 0.34 0.30 0.37 0.35 0.26 0.28 0.34 0.31 0.30 0.26 0.24 0.21 0.21 0.19 0.19 0.18 0.17 0.18 0.21 0.17 0.22 0.23 0.21 0.32 0.25 0.30 0.31 0.38 0.37 0.53 0.62 0.58 0.55 0.52 0.47 0.47 0.45
0.54 0.40 0.34 0.28 0.26 0.28 0.27 0.29 0.39 0.45 0.46 0.46 0.44 0.41 0.40 0.37 0.35 0.33 0.32 0.34 0.30 0.27 0.27 0.26 0.25 0.31 0.32 0.30 0.34 0.21 0.24 0.25 0.24 0.30 0.26 0.25 0.22 0.30 0.24 0.28 0.33 0.38 0.46 0.40 0.43 0.51 0.57 0.63 0.65 0.59 0.55 0.53 0.52 0.49
0.49 0.36 0.32 0.28 0.29 0.29 0.28 0.33 0.41 0.45 0.45 0.43 0.42 0.41 0.41 0.40 0.38 0.36 0.31 0.34 0.31 0.29 0.22 0.26 0.38 0.30 0.37 0.35 0.34 0.34 0.30 0.33 0.34 0.34 0.30 0.30 0.29 0.39 0.34 0.38 0.39 0.45 0.50 0.46 0.48 0.55 0.60 0.63 0.62 0.58 0.57 0.57 0.53 0.51
0.42 0.34 0.31 0.31 0.31 0.29 0.30 0.36 0.43 0.45 0.45 0.44 0.42 0.40 0.39 0.37 0.36 0.34 0.33 0.34 0.34 0.27 0.22 0.27 0.33 0.36 0.37 0.35 0.33 0.35 0.35 0.34 0.33 0.32 0.32 0.32 0.40 0.42 0.44 0.45 0.41 0.50 0.47 0.44 0.42 0.55 0.58 0.60 0.62 0.59 0.54 0.53 0.53 0.49
0.35 0.32 0.32 0.32 0.32 0.32 0.33 0.39 0.43 0.46 0.46 0.43 0.41 0.41 0.40 0.36 0.33 0.28 0.25 0.35 0.38 0.32 0.25 0.21 0.36 0.35 0.38 0.38 0.35 0.33 0.35 0.36 0.37 0.35 0.34 0.40 0.47 0.45 0.39 0.37 0.50 0.56 0.59 0.60 0.54 0.64 0.64 0.67 0.66 0.63 0.55 0.55 0.55 0.50
0.32 0.34 0.33 0.33 0.34 0.34 0.37 0.41 0.43 0.45 0.45 0.44 0.42 0.38 0.35 0.34 0.32 0.29 0.26 0.31 0.36 0.35 0.24 0.21 0.24 0.34 0.36 0.37 0.36 0.35 0.38 0.37 0.38 0.36 0.36 0.40 0.42 0.46 0.42 0.37 0.51 0.58 0.63 0.65 0.70 0.68 0.60 0.64 0.60 0.63 0.60 0.56 0.52 0.49
0.35 0.35 0.34 0.36 0.36 0.36 0.39 0.42 0.44 0.44 0.44 0.42 0.40 0.39 0.38 0.37 0.39 0.33 0.37 0.38 0.37 0.27 0.27 0.20 0.22 0.27 0.36 0.30 0.27 0.37 0.34 0.37 0.37 0.38 0.40 0.38 0.43 0.45 0.38 0.49 0.56 0.61 0.65 0.66 0.68 0.69 0.65 0.68 0.64 0.59 0.55 0.50 0.45 0.43
0.37 0.35 0.36 0.38 0.39 0.42 0.44 0.48 0.49 0.48 0.45 0.41 0.38 0.37 0.35 0.35 0.34 0.36 0.42 0.41 0.40 0.30 0.21 0.22 0.18 0.18 0.35 0.30 0.31 0.31 0.34 0.27 0.39 0.34 0.36 0.40 0.36 0.33 0.45 0.51 0.56 0.61 0.60 0.62 0.68 0.69 0.66 0.62 0.61 0.57 0.49 0.45 0.41 0.38
0.36 0.35 0.39 0.41 0.44 0.46 0.49 0.48 0.47 0.44 0.41 0.37 0.34 0.31 0.28 0.37 0.41 0.35 0.30 0.27 0.28 0.30 0.29 0.23 0.27 0.21 0.31 0.28 0.24 0.25 0.27 0.25 0.23 0.29 0.38 0.35 0.35 0.45 0.52 0.57 0.62 0.65 0.67 0.69 0.61 0.58 0.61 0.56 0.60 0.57 0.48 0.45 0.41 0.37
0.36 0.36 0.41 0.43 0.47 0.49 0.49 0.49 0.45 0.41 0.37 0.34 0.33 0.35 0.38 0.38 0.31 0.28 0.23 0.23 0.26 0.23 0.27 0.27 0.26 0.22 0.32 0.22 0.21 0.25 0.21 0.23 0.18 0.24 0.26 0.28 0.31 0.41 0.52 0.57 0.63 0.66 0.67 0.65 0.65 0.67 0.69 0.67 0.63 0.57 0.51 0.48 0.45 0.42
0.37 0.38 0.38 0.42 0.46 0.49 0.50 0.48 0.44 0.41 0.37 0.38 0.38 0.37 0.32 0.27 0.26 0.23 0.23 0.25 0.25 0.22 0.27 0.24 0.25 0.27 0.27 0.30 0.21 0.22 0.19 0.21 0.15 0.26 0.21 0.21 0.32 0.42 0.50 0.56 0.61 0.64 0.64 0.62 0.62 0.63 0.69 0.72 0.71 0.64 0.56 0.50 0.48 0.46
0.37 0.38 0.40 0.41 0.43 0.44 0.45 0.45 0.43 0.42 0.43 0.39 0.30 0.26 0.27 0.27 0.22 0.21 0.19 0.22 0.24 0.28 0.28 0.25 0.23 0.25 0.25 0.26 0.21 0.20 0.16 0.17 0.25 0.17 0.16 0.24 0.30 0.38 0.45 0.52 0.59 0.63 0.63 0.63 0.63 0.62 0.61 0.64 0.68 0.67 0.63 0.58 0.51 0.47
0.39 0.39 0.42 0.44 0.43 0.43 0.44 0.44 0.44 0.44 0.40 0.33 0.30 0.26 0.26 0.25 0.24 0.24 0.26 0.28 0.32 0.31 0.28 0.27 0.24 0.24 0.24 0.21 0.21 0.16 0.22 0.23 0.13 0.11 0.13 0.24 0.27 0.31 0.36 0.41 0.45 0.45 0.50 0.57 0.62 0.64 0.63 0.60 0.58 0.62 0.63 0.66 0.60 0.51
0.42 0.42 0.42 0.44 0.46 0.47 0.47 0.47 0.47 0.48 0.44 0.36 0.35 0.29 0.28 0.34 0.33 0.34 0.35 0.34 0.35 0.35 0.30 0.25 0.24 0.24 0.21 0.19 0.21 0.20 0.17 0.14 0.14 0.13 0.21 0.25 0.26 0.28 0.28 0.30 0.32 0.35 0.39 0.41 0.47 0.60 0.64 0.66 0.61 0.57 0.58 0.58 0.60 0.58
0.42 0.41 0.42 0.45 0.45 0.46 0.46 0.49 0.51 0.53 0.49 0.44 0.41 0.36 0.37 0.33 0.34 0.36 0.36 0.34 0.38 0.33 0.30 0.26 0.22 0.19 0.18 0.19 0.16 0.15 0.14 0.13 0.17 0.21 0.25 0.27 0.28 0.29 0.26 0.26 0.24 0.24 0.28 0.32 0.37 0.43 0.58 0.63 0.65 0.66 0.63 0.60 0.56 0.54
0.39 0.38 0.45 0.44 0.44 0.45 0.49 0.49 0.50 0.48 0.47 0.44 0.42 0.45 0.43 0.39 0.38 0.38 0.37 0.35 0.38 0.31 0.25 0.25 0.19 0.20 0.24 0.18 0.16 0.19 0.17 0.22 0.25 0.25 0.27 0.29 0.27 0.27 0.26 0.23 0.21 0.20 0.20 0.23 0.29 0.34 0.44 0.56 0.60 0.61 0.63 0.68 0.65 0.63
0.37 0.43 0.44 0.44 0.45 0.48 0.50 0.51 0.51 0.49 0.44 0.47 0.42 0.44 0.44 0.44 0.42 0.41 0.39 0.36 0.32 0.28 0.26 0.24 0.28 0.23 0.20 0.17 0.18 0.23 0.27 0.30 0.30 0.29 0.30 0.30 0.28 0.26 0.23 0.22 0.22 0.21 0.19 0.19 0.20 0.26 0.31 0.42 0.53 0.56 0.60 0.60 0.63 0.67
0.42 0.45 0.48 0.48 0.50 0.50 0.49 0.52 0.58 0.46 0.47 0.48 0.48 0.46 0.44 0.43 0.44 0.41 0.38 0.36 0.34 0.32 0.27 0.24 0.22 0.21 0.22 0.25 0.25 0.27 0.29 0.29 0.29 0.32 0.31 0.29 0.27 0.24 0.23 0.22 0.21 0.19 0.18 0.18 0.19 0.19 0.22 0.28 0.38 0.48 0.54 0.59 0.59 0.60
0.46 0.47 0.47 0.49 0.51 0.47 0.44 0.50 0.60 0.51 0.44 0.45 0.45 0.42 0.42 0.40 0.41 0.39 0.37 0.34 0.31 0.28 0.24 0.22 0.19 0.23 0.24 0.26 0.31 0.32 0.32 0.33 0.30 0.26 0.25 0.25 0.25 0.23 0.22 0.21 0.19 0.18 0.18 0.18 0.20 0.21 0.23 0.24 0.27 0.32 0.37 0.42 0.48 0.56
0.45 0.47 0.48 0.48 0.49 0.50 0.48 0.49 0.49 0.49 0.47 0.43 0.43 0.40 0.37 0.39 0.36 0.35 0.34 0.34 0.28 0.26 0.22 0.23 0.23 0.24 0.27 0.29 0.33 0.32 0.31 0.30 0.27 0.26 0.24 0.22 0.23 0.22 0.20 0.20 0.20 0.19 0.20 0.20 0.20 0.22 0.25 0.24 0.25 0.26 0.27 0.28 0.32 0.40
0.49 0.51 0.50 0.54 0.48 0.48 0.48 0.53 0.49 0.48 0.44 0.42 0.41 0.41 0.36 0.35 0.34 0.34 0.34 0.28 0.25 0.25 0.24 0.22 0.21 0.21 0.21 0.24 0.26 0.27 0.26 0.25 0.24 0.23 0.22 0.21 0.19 0.19 0.19 0.20 0.20 0.20 0.20 0.21 0.22 0.22 0.24 0.27 0.28 0.30 0.32 0.32 0.35 0.34
0.53 0.55 0.51 0.50 0.44 0.44 0.44 0.54 0.43 0.44 0.37 0.38 0.41 0.37 0.36 0.33 0.31 0.31 0.22 0.22 0.22 0.25 0.24 0.23 0.24 0.25 0.24 0.24 0.24 0.24 0.24 0.24 0.23 0.23 0.22 0.22 0.23 0.22 0.21 0.21 0.22 0.22 0.22 0.24 0.27 0.27 0.27 0.26 0.26 0.25 0.27 0.27 0.28 0.28
0.60 0.50 0.43 0.42 0.42 0.38 0.45 0.41 0.44 0.42 0.42 0.39 0.35 0.29 0.28 0.27 0.28 0.22 0.17 0.18 0.20 0.22 0.22 0.22 0.23 0.22 0.23 0.23 0.22 0.22 0.22 0.23 0.22 0.23 0.24 0.23 0.22 0.21 0.22 0.22 0.23 0.25 0.26 0.24 0.19 0.16 0.16 0.16 0.17 0.18 0.18 0.17 0.18 0.19
0.44 0.42 0.42 0.36 0.42 0.38 0.36 0.38 0.39 0.39 0.36 0.31 0.27 0.24 0.23 0.25 0.17 0.16 0.14 0.16 0.17 0.18 0.20 0.22 0.21 0.21 0.19 0.19 0.21 0.22 0.25 0.23 0.21 0.20 0.23 0.24 0.22 0.22 0.21 0.23 0.25 0.26 0.24 0.16 0.16 0.18 0.20 0.22 0.21 0.20 0.19 0.19 0.19 0.18
0.35 0.39 0.36 0.35 0.36 0.34 0.34 0.33 0.34 0.34 0.30 0.26 0.21 0.22 0.22 0.16 0.12 0.09 0.11 0.14 0.15 0.17 0.18 0.18 0.18 0.19 0.18 0.19 0.18 0.19 0.20 0.23 0.23 0.20 0.21 0.22 0.21 0.20 0.19 0.19 0.19 0.19 0.17 0.19 0.19 0.19 0.19 0.21 0.22 0.22 0.22 0.22 0.22 0.21
0.32 0.33 0.38 0.43 0.39 0.37 0.34 0.36 0.37 0.30 0.24 0.18 0.18 0.16 0.14 0.09 0.08 0.10 0.14 0.17 0.17 0.18 0.20 0.21 0.20 0.18 0.16 0.17 0.19 0.21 0.22 0.23 0.21 0.20 0.23 0.24 0.24 0.24 0.22 0.20 0.18 0.18 0.19 0.20 0.22 0.22 0.20 0.21 0.23 0.24 0.23 0.24 0.24 0.23
0.36 0.36 0.31 0.36 0.36 0.37 0.33 0.32 0.28 0.21 0.19 0.19 0.17 0.11 0.10 0.09 0.08 0.12 0.15 0.18 0.20 0.20 0.20 0.21 0.21 0.19 0.18 0.17 0.19 0.20 0.21 0.23 0.24 0.24 0.24 0.24 0.25 0.25 0.25 0.25 0.26 0.24 0.25 0.25 0.25 0.24 0.25 0.25 0.24 0.23 0.22 0.22 0.23 0.27
0.35 0.37 0.36 0.32 0.34 0.34 0.32 0.29 0.22 0.20 0.21 0.18 0.12 0.11 0.11 0.14 0.16 0.16 0.17 0.19 0.21 0.19 0.16 0.15 0.16 0.19 0.18 0.19 0.20 0.21 0.22 0.22 0.20 0.17 0.17 0.17 0.19 0.20 0.24 0.25 0.27 0.28 0.28 0.28 0.28 0.28 0.27 0.26 0.26 0.27 0.28 0.27 0.28 0.30
0.34 0.39 0.34 0.33 0.30 0.29 0.31 0.29 0.24 0.24 0.23 0.22 0.19 0.17 0.16 0.17 0.19 0.21 0.20 0.20 0.18 0.16 0.16 0.16 0.17 0.16 0.15 0.15 0.17 0.19 0.23 0.24 0.23 0.20 0.17 0.18 0.20 0.24 0.24 0.24 0.25 0.26 0.27 0.27 0.27 0.28 0.29 0.30 0.31 0.31 0.29 0.28 0.28 0.28
0.37 0.36 0.33 0.32 0.30 0.33 0.35 0.32 0.28 0.25 0.23 0.21 0.21 0.17 0.16 0.17 0.19 0.22 0.21 0.21 0.21 0.19 0.17 0.16 0.16 0.18 0.17 0.16 0.16 0.16 0.18 0.23 0.24 0.24 0.25 0.26 0.25 0.25 0.26 0.28 0.28 0.27 0.27 0.27 0.28 0.28 0.28 0.28 0.27 0.26 0.25 0.25 0.26 0.27
0.34 0.32 0.30 0.28 0.30 0.35 0.35 0.30 0.26 0.23 0.21 0.19 0.18 0.20 0.18 0.17 0.14 0.18 0.21 0.22 0.19 0.17 0.18 0.19 0.17 0.17 0.19 0.21 0.21 0.22 0.22 0.22 0.23 0.24 0.25 0.25 0.25 0.27 0.29 0.30 0.29 0.28 0.28 0.28 0.28 0.28 0.27 0.26 0.25 0.25 0.25 0.25 0.25 0.25
0.33 0.34 0.33 0.31 0.30 0.30 0.32 0.29 0.25 0.23 0.22 0.19 0.19 0.20 0.19 0.18 0.15 0.18 0.24 0.24 0.20 0.18 0.19 0.20 0.21 0.22 0.22 0.22 0.22 0.23 0.24 0.25 0.25 0.25 0.26 0.27 0.28 0.29 0.30 0.29 0.29 0.29 0.29 0.28 0.28 0.27 0.26 0.26 0.25 0.25 0.25 0.25 0.26 0.27
Wind_Speed
44 44 43 43 42 40 38 35 33 31 28 28 29 28 25 24 19 16 13 12 10 10 9 7 6 5 4 3 3 4 7 10 12 14 16 16 17 14 11 10 6 6 9 12 10 11 10 5 8 9 8 4 5 7
45 45 44 43 42 40 38 36 34 32 30 30 29 28 25 22 19 18 15 13 14 10 13 12 11 8 6 6 7 8 9 11 13 13 14 15 14 13 12 11 11 12 12 12 9 10 7 6 9 9 7 4 4 5
46 46 45 43 42 40 38 37 35 33 32 31 29 27 25 22 20 20 20 19 17 16 13 9 7 8 9 7 8 9 11 12 14 16 16 15 16 13 14 16 12 13 13 12 10 10 8 8 8 9 4 3 2 3
47 46 45 44 42 40 39 37 36 34 33 31 29 27 26 25 23 21 17 13 11 10 9 9 9 9 10 11 12 13 13 14 15 16 18 17 16 15 16 16 16 14 11 10 12 10 7 8 7 3 2 1 1 1
48 47 45 44 42 41 40 39 37 35 33 32 30 29 27 26 24 20 15 12 9 7 10 11 10 10 10 11 12 13 13 14 14 15 16 16 16 15 16 15 15 12 11 11 9 6 5 3 3 0 1 1 1 1
49 47 45 44 42 42 41 39 38 36 34 33 31 30 28 25 20 16 11 9 12 16 10 8 8 8 9 11 12 12 12 13 14 15 15 14 13 12 13 12 11 9 7 6 6 4 1 1 2 1 1 1 2 2
49 47 46 44 44 43 42 40 39 38 36 34 32 29 24 20 17 12 11 15 13 10 9 9 7 6 6 7 9 11 12 12 13 13 14 12 10 10 11 10 10 8 8 7 5 4 4 5 3 2 1 2 2 3
50 48 46 45 45 44 43 42 40 38 35 33 31 28 24 21 17 15 15 13 11 9 6 6 7 7 5 6 7 8 9 10 12 11 12 12 9 7 8 9 8 8 7 6 6 5 4 5 4 3 3 4 6 6
50 48 48 47 46 45 44 42 40 37 35 32 29 25 21 16 15 15 13 11 8 6 6 6 8 7 7 6 6 6 8 9 9 11 10 10 10 7 4 6 7 7 5 3 4 5 6 5 4 5 4 5 5 5
50 49 48 48 47 45 43 40 38 35 33 30 25 19 16 17 18 14 11 9 6 4 5 7 7 8 9 6 4 3 4 5 6 7 7 9 10 8 5 3 5 5 6 6 6 6 6 6 5 4 3 3 3 3
50 49 48 48 46 44 42 39 36 33 29 24 20 17 21 18 14 10 9 8 7 6 6 7 9 11 8 5 4 2 3 3 3 4 5 6 7 9 8 4 3 4 5 6 6 6 5 5 4 4 2 2 3 2
50 48 47 46 45 43 40 37 34 29 25 22 22 22 18 14 11 10 10 9 7 8 9 11 10 9 7 5 2 1 1 1 2 2 4 4 4 6 7 7 3 2 3 5 6 6 6 5 4 3 2 1 2 2
49 47 45 44 42 41 38 35 31 30 28 23 19 16 15 11 11 12 12 10 9 11 12 13 10 8 7 4 2 2 0 1 2 2 2 2 3 4 5 6 6 3 1 2 4 5 5 5 4 4 2 1 2 3
47 45 44 42 40 39 37 36 33 27 23 19 16 14 13 12 11 10 12 12 11 14 16 13 9 6 5 4 3 2 1 2 1 1 1 2 1 2 3 3 4 5 5 3 3 3 4 4 4 5 4 2 2 2
46 44 42 40 39 37 35 33 28 24 20 17 14 13 12 12 12 12 12 13 15 16 14 11 8 6 6 4 4 3 4 4 4 3 3 4 2 0 2 3 4 5 5 5 5 4 4 4 3 4 4 4 3 3
45 42 39 39 37 35 33 29 25 22 17 15 13 13 14 13 13 14 15 15 16 15 12 9 8 7 6 6 6 6 5 5 5 4 5 5 3 2 3 4 5 6 7 7 6 6 6 6 6 6 5 5 5 5
41 38 39 37 35 33 29 27 23 19 17 15 14 13 14 14 15 15 16 16 15 13 11 9 8 7 7 7 7 7 7 5 5 6 6 5 5 4 5 6 7 8 8 7 7 7 7 7 7 7 9 10 8 7
38 40 38 35 33 31 27 23 20 17 16 15 15 14 13 15 17 16 16 15 13 12 11 9 9 9 9 9 8 8 7 6 7 7 7 6 6 5 6 7 7 8 8 8 8 8 8 8 9 10 10 10 10 11
39 38 36 33 32 28 23 20 18 16 15 15 16 15 15 15 15 15 15 13 12 11 11 10 9 10 10 10 9 9 9 9 8 8 8 8 8 8 8 8 9 9 9 9 8 7 7 8 8 9 9 10 12 12
37 35 33 31 28 24 20 19 18 16 17 17 17 16 15 15 15 15 14 13 13 12 11 11 10 10 9 10 10 10 10 10 9 9 10 10 10 10 10 9 8 8 7 6 5 6 6 7 8 9 10 11 12 13
35 32 30 28 24 20 19 20 17 17 18 17 18 16 15 15 14 14 13 12 12 11 11 11 10 9 9 10 10 11 11 11 11 11 11 11 11 11 9 8 6 4 4 3 4 5 5 6 9 10 11 12 13 14
31 30 28 24 21 19 18 18 19 19 17 18 18 15 15 14 14 13 13 11 11 11 11 10 10 10 10 10 11 12 12 13 12 12 12 11 11 10 8 6 4 3 2 2 2 3 6 9 11 13 14 14 14 15
29 26 23 21 19 17 19 20 19 18 18 19 17 15 15 14 13 12 11 11 11 11 11 10 10 10 10 11 12 13 14 14 14 13 12 11 10 9 8 7 5 4 3 1 2 5 8 11 13 16 17 17 18 18
26 22 21 20 19 19 21 20 19 19 19 20 18 16 15 13 13 10 9 10 11 11 11 11 10 10 11 12 13 14 14 15 14 13 11 10 10 10 9 8 6 4 3 2 4 7 10 14 17 19 21 22 22 22
22 20 19 19 20 20 20 20 21 20 21 21 19 16 15 13 11 8 7 7 10 11 12 11 10 10 10 10 11 12 11 12 11 11 11 12 11 10 9 7 6 6 5 6 7 10 13 16 18 21 24 26 26 26
22 19 21 21 22 21 22 22 22 23 25 20 18 17 15 12 9 5 4 5 7 10 10 10 9 8 8 9 8 9 9 9 11 11 11 11 11 10 8 7 6 7 8 9 11 12 15 18 20 22 25 27 26 24
21 19 22 22 22 22 21 21 25 24 22 21 22 19 15 11 9 6 6 5 6 6 9 9 8 7 6 7 9 9 9 10 10 10 8 8 9 10 9 9 9 10 10 12 13 15 17 19 21 23 24 25 26 23
22 19 24 24 22 22 23 24 25 25 24 22 22 19 16 12 10 9 8 7 7 7 8 8 7 7 7 8 9 10 9 10 9 9 7 7 8 8 9 10 11 12 14 15 16 17 19 20 21 22 23 24 25 25
21 22 23 23 23 23 24 26 26 25 25 25 22 18 15 13 12 11 10 9 9 10 10 9 8 8 8 8 8 9 9 9 9 10 10 9 10 11 12 13 14 15 16 17 18 19 20 21 22 23 24 25 25 25
23 25 22 25 24 23 25 27 27 26 24 24 21 18 15 15 14 12 11 11 10 9 9 9 8 9 7 7 6 6 7 9 11 12 13 14 14 14 15 16 17 18 19 20 21 21 22 23 24 25 26 27 27 27
27 25 23 23 23 23 26 26 26 26 25 25 23 19 17 16 15 14 14 13 13 11 10 9 9 8 8 7 7 7 7 9 11 13 14 16 17 18 19 20 21 21 22 22 23 24 25 26 27 29 30 31 31 31
27 26 25 23 23 25 26 26 26 26 27 25 24 23 20 18 17 17 18 17 16 15 15 14 13 13 13 11 10 10 10 11 13 14 16 18 19 19 20 21 22 23 24 25 26 28 29 30 32 34 35 36 35 35
28 28 26 25 25 26 27 27 26 25 26 27 26 25 24 22 21 19 19 21 21 20 19 18 17 17 16 16 16 15 15 15 16 16 16 17 17 18 19 20 22 23 24 26 27 29 31 34 36 38 39 40 41 41
Wind_Direction
177 176 175 174 174 174 174 174 173 172 170 168 167 167 166 164 165 160 150 154 153 138 116 112 104 97 91 55 29 25 359 360 357 357 354 351 355 359 4 24 50 115 152 149 153 148 143 102 143 138 139 117 67 57
176 174 173 173 173 173 173 172 171 169 167 164 163 163 164 164 161 156 148 141 138 127 126 108 91 76 72 62 59 33 24 14 9 6 6 8 23 33 41 65 79 110 128 145 136 135 138 127 147 145 141 119 81 62
174 173 172 172 172 171 171 170 169 167 165 163 163 162 161 160 159 154 143 138 127 121 107 106 82 67 67 67 51 39 35 35 34 31 32 38 50 53 71 73 87 102 109 129 134 122 120 135 140 146 126 121 85 73
172 172 171 171 170 170 170 168 167 165 164 162 161 160 157 153 151 150 151 151 143 135 128 107 90 89 71 68 63 57 61 54 50 44 45 55 65 71 78 82 87 96 97 110 125 118 110 132 142 143 151 165 141 90
171 170 170 170 169 169 168 167 166 164 163 162 161 158 156 153 150 144 141 141 146 148 142 130 106 85 79 71 66 62 60 55 49 47 53 65 73 79 79 87 85 81 94 110 119 100 105 139 145 34 244 211 191 184
169 169 168 168 168 167 166 166 165 163 162 161 159 156 156 156 157 158 153 136 132 132 137 129 124 103 87 74 65 62 63 55 53 52 57 69 75 84 79 79 70 65 88 124 118 103 73 274 275 297 222 223 192 186
167 167 166 166 165 165 164 163 162 160 159 158 158 158 160 163 165 169 167 156 146 139 134 133 134 130 101 82 70 64 64 59 54 54 54 66 78 83 81 69 43 52 75 94 90 64 65 59 59 39 136 153 158 152
166 165 164 163 162 161 160 160 159 159 159 158 157 155 154 152 152 147 146 149 150 142 140 142 143 147 126 103 85 66 66 59 53 55 56 56 71 84 81 45 44 55 70 90 54 54 40 31 49 57 105 122 124 121
164 163 163 162 161 161 160 159 158 158 158 159 158 157 159 162 165 160 154 148 142 155 157 157 156 156 153 125 101 78 62 61 54 54 52 46 51 70 63 40 49 52 63 38 33 43 36 37 49 58 92 112 117 117
163 163 163 163 162 162 162 162 162 161 161 162 165 168 171 168 161 166 171 175 173 161 156 157 164 155 162 152 117 85 53 51 55 48 42 50 52 49 48 55 54 49 50 48 38 27 21 30 39 43 79 121 126 122
163 163 164 164 164 164 165 165 164 165 166 170 173 174 164 168 175 182 183 184 186 174 169 165 158 155 162 160 136 64 72 53 49 48 33 44 45 40 41 59 61 61 62 54 46 39 37 37 33 32 75 144 153 145
163 163 163 164 166 167 168 168 168 170 173 174 167 165 171 180 187 187 190 190 191 185 175 165 159 160 163 168 159 136 64 34 41 55 34 44 47 41 39 43 64 73 64 50 41 37 36 38 32 33 42 146 199 209
162 163 163 164 165 167 168 169 169 165 163 165 170 178 187 197 194 196 193 192 188 184 177 169 164 168 174 186 178 197 310 4 121 11 22 50 67 52 47 47 53 45 18 10 23 28 32 31 27 26 17 355 232 224
162 162 163 164 165 165 165 166 167 171 174 178 182 184 195 199 199 197 191 187 185 173 168 169 171 185 186 194 201 208 214 209 273 280 296 171 128 62 48 38 22 23 22 350 314 323 356 11 16 18 15 356 319 259
162 162 162 164 165 166 168 170 173 175 178 183 187 193 197 193 188 183 179 176 172 170 172 173 182 193 196 205 221 220 223 249 259 259 206 184 174 189 358 358 1 351 340 337 330 311 292 302 329 345 355 352 328 289
162 162 165 166 167 168 170 173 175 179 184 188 192 189 186 181 182 183 178 173 177 179 183 195 201 209 219 220 229 240 236 255 255 214 189 191 212 262 300 316 324 328 329 327 316 304 302 284 277 286 308 324 334 325
165 168 167 167 168 170 173 175 178 184 189 193 192 184 189 182 182 179 177 181 186 192 201 207 214 225 218 232 236 247 258 256 219 199 201 212 233 260 291 304 310 316 317 317 318 315 299 290 286 284 282 280 289 298
167 167 168 169 170 170 173 179 184 189 191 191 193 192 191 188 185 186 187 189 197 201 210 217 218 226 231 236 244 244 243 230 215 215 221 230 244 267 288 300 306 313 318 317 314 305 303 300 288 285 286 288 286 280
166 168 170 172 174 175 181 186 191 191 193 193 189 190 188 186 184 184 189 197 201 206 209 223 231 236 240 247 241 234 227 223 225 232 237 242 255 265 277 290 299 302 302 301 305 312 306 299 296 295 293 289 282 280
165 167 170 171 176 181 185 188 190 189 192 190 185 185 187 187 189 193 197 204 211 219 226 232 238 238 243 241 237 228 227 230 233 239 244 250 257 263 273 282 288 296 300 294 297 306 316 317 317 309 303 297 288 284
167 170 172 175 180 182 187 187 188 186 182 186 185 187 188 191 195 200 205 212 217 225 228 230 228 233 239 235 232 231 233 237 242 249 251 251 255 262 265 266 267 273 287 296 305 314 320 328 326 317 312 307 300 292
172 172 175 179 183 187 189 190 187 185 191 187 188 196 194 196 199 204 209 217 220 221 219 220 225 230 234 235 236 239 242 245 251 253 253 250 247 245 239 235 232 238 250 282 310 332 331 328 332 332 321 314 309 304
170 175 179 184 186 189 186 187 189 193 192 192 192 192 193 194 197 200 208 215 219 217 217 221 229 238 243 246 247 249 250 248 250 248 244 238 228 220 212 205 207 207 215 243 331 343 345 343 338 333 324 316 310 305
178 183 187 190 193 194 192 195 194 191 188 186 183 180 181 182 184 194 208 216 216 215 220 225 235 243 250 253 253 253 249 244 241 233 224 211 207 202 201 199 198 208 226 272 312 326 332 336 338 335 331 323 313 306
179 184 186 186 188 185 185 184 183 180 177 174 172 172 172 174 180 195 213 221 217 220 222 228 234 243 252 255 253 247 235 225 220 211 201 198 199 197 197 206 216 230 265 291 305 318 325 332 333 334 332 329 319 311
181 186 187 185 182 182 181 178 180 175 170 172 170 167 168 170 172 187 198 205 201 201 202 207 219 235 242 239 224 214 206 192 187 190 193 197 200 201 211 226 241 259 273 291 304 312 321 327 329 331 333 335 331 321
184 187 186 184 181 178 177 177 173 173 175 175 173 168 165 166 174 160 143 133 137 166 185 195 201 208 211 202 195 187 184 184 186 189 192 201 212 221 233 245 259 277 288 294 301 309 316 321 326 329 332 333 336 332
187 184 183 183 184 185 180 177 178 179 178 175 170 174 170 174 170 157 148 131 126 131 153 168 184 188 185 184 183 182 183 187 192 200 211 223 232 240 252 264 275 283 292 294 300 305 311 315 319 324 327 329 330 332
188 185 183 183 182 183 184 183 182 180 177 177 177 176 180 179 172 167 159 150 143 141 138 137 143 152 152 160 174 188 198 204 210 220 233 244 253 263 269 275 281 286 290 296 299 302 306 310 313 317 320 322 324 324
187 185 181 183 184 186 186 184 183 182 183 182 183 186 187 184 182 180 178 175 171 168 164 163 163 167 167 172 178 196 219 232 239 246 252 258 265 273 277 282 284 287 290 294 298 301 302 305 307 310 312 315 316 316
185 186 186 188 190 188 187 186 187 188 190 192 195 196 196 195 195 195 196 198 196 193 192 199 202 206 208 215 226 236 252 258 262 263 265 268 271 274 277 281 284 287 290 292 294 297 298 301 304 306 307 308 309 308
193 194 192 192 192 192 191 193 195 198 199 200 202 205 208 209 212 212 211 208 210 216 220 223 227 231 234 244 252 261 275 280 279 278 276 276 277 278 279 282 285 287 289 290 293 296 297 297 300 302 304 304 304 303
199 198 198 197 197 197 197 199 201 202 205 207 210 213 216 218 222 221 219 220 223 227 230 234 238 239 242 247 256 267 274 280 285 286 284 281 281 280 282 285 287 289 291 293 295 297 299 300 300 301 301 301 300 300